Kahului, HI

6:38 AM HST on October 22, 2017 (GMT -1000)
Kahului

Weather History for PHOG - January, 2013

Change the Weather History Date:

Wednesday, January 9, 2013

  Actual Average Record
Temperature  
Mean Temperature 73 °F 72 °F  
Max Temperature 80 °F 81 °F 86 °F (1959)
Min Temperature 65 °F 64 °F 54 °F (1972)
Degree Days  
Heating Degree Days 0 0  
Month to date heating degree days 0 0  
Since 1 July heating degree days 0 0  
Cooling Degree Days 8 7  
Month to date cooling degree days 75 63  
Year to date cooling degree days 75 63  
Growing Degree Days 20 (Base 50)    
Moisture  
Dew Point 64 °F    
Average Humidity 75    
Maximum Humidity 87    
Minimum Humidity 62    
Precipitation  
Precipitation 0.00 in 0.09 in 3.84 in (1980)
Month to date precipitation 0.81 0.91  
Year to date precipitation 0.81 0.91  
Snow  
Snow 0.00 in - - ()
Month to date snowfall 0.0  
Since 1 July snowfall 0.0  
Snow Depth 0.00 in    
Sea Level Pressure  
Sea Level Pressure 29.96 in    
Wind  
Wind Speed 15 mph (ENE)    
Max Wind Speed 29 mph    
Max Gust Speed 38 mph    
Visibility 10 miles    
Events      
T = Trace of Precipitation, MM = Missing Value Source: NWS Daily Summary

Daily Weather History Graph

Daily Weather History Graph

Search for Another Location

Airport or City:

Trip Planner

Search our weather history database for the weather conditions in past years. The results will help you decide how hot, cold, wet, or windy it might be!

Date:

Astronomy

Jan. 09, 2013 Rise Set
Actual Time 7:04 AM HST 6:01 PM HST
Civil Twilight 6:40 AM HST 6:25 PM HST
Nautical Twilight 6:13 AM HST 6:52 PM HST
Astronomical Twilight 5:46 AM HST 7:20 PM HST
Moon 4:55 AM HST (1/9) 4:15 PM HST (1/9)
Length of Visible Light 11h 44m
Length of Day
10h 57m
Waning Crescent, 5% of the Moon is Illuminated
Jan 9
Waning Crescent
Jan 11
New
Jan 18
First Quarter
Jan 26
Full
Feb 3
Last Quarter

Hourly Weather History & Observations

Time (HST) Temp. Dew Point Humidity Pressure Visibility Wind Dir Wind Speed Gust Speed Precip Events Conditions
12:54 AM 71.1 °F 66.0 °F 84% 29.99 in 10.0 mi NE 21.9 mph 31.1 mph N/A   Clear
1:54 AM 71.1 °F 64.0 °F 78% 29.97 in 10.0 mi East 12.7 mph 31.1 mph N/A   Partly Cloudy
2:54 AM 71.1 °F 64.9 °F 81% 29.95 in 10.0 mi ESE 10.4 mph 21.9 mph N/A   Partly Cloudy
3:54 AM 69.1 °F 63.0 °F 81% 29.95 in 10.0 mi East 4.6 mph - N/A   Scattered Clouds
4:54 AM 66.9 °F 61.0 °F 81% 29.95 in 10.0 mi South 3.5 mph - N/A   Scattered Clouds
5:54 AM 66.9 °F 62.1 °F 84% 29.95 in 10.0 mi West 5.8 mph - N/A   Mostly Cloudy
6:54 AM 69.1 °F 63.0 °F 81% 29.98 in 10.0 mi ENE 6.9 mph - N/A   Scattered Clouds
7:54 AM 66.0 °F 62.1 °F 87% 29.99 in 10.0 mi ESE 6.9 mph - N/A   Partly Cloudy
8:54 AM 73.0 °F 66.0 °F 79% 30.01 in 10.0 mi East 15.0 mph 21.9 mph N/A   Scattered Clouds
9:54 AM 75.0 °F 66.9 °F 76% 30.01 in 10.0 mi ENE 13.8 mph 26.5 mph N/A   Scattered Clouds
10:54 AM 77.0 °F 66.0 °F 69% 30.00 in 10.0 mi ENE 16.1 mph 25.3 mph N/A   Scattered Clouds
11:54 AM 78.1 °F 64.9 °F 64% 29.95 in 10.0 mi ENE 17.3 mph 29.9 mph N/A   Scattered Clouds
12:54 PM 79.0 °F 66.0 °F 64% 29.93 in 10.0 mi East 18.4 mph 33.4 mph N/A   Scattered Clouds
1:54 PM 78.1 °F 66.9 °F 68% 29.90 in 10.0 mi ENE 24.2 mph 34.5 mph N/A   Scattered Clouds
2:54 PM 78.1 °F 64.9 °F 64% 29.89 in 10.0 mi ENE 18.4 mph 28.8 mph N/A   Scattered Clouds
3:54 PM 77.0 °F 66.0 °F 69% 29.91 in 10.0 mi ENE 19.6 mph 34.5 mph N/A   Scattered Clouds
4:54 PM 75.0 °F 64.9 °F 71% 29.93 in 10.0 mi ENE 19.6 mph 27.6 mph N/A   Scattered Clouds
5:54 PM 73.0 °F 64.9 °F 76% 29.94 in 10.0 mi ENE 17.3 mph 27.6 mph N/A   Scattered Clouds
6:54 PM 72.0 °F 64.9 °F 78% 29.96 in 10.0 mi NE 19.6 mph 26.5 mph N/A   Scattered Clouds
7:54 PM 72.0 °F 64.9 °F 78% 29.98 in 10.0 mi ENE 17.3 mph 26.5 mph N/A   Scattered Clouds
8:54 PM 71.1 °F 64.0 °F 78% 29.99 in 10.0 mi ENE 16.1 mph 27.6 mph N/A   Partly Cloudy
9:54 PM 72.0 °F 63.0 °F 73% 29.99 in 10.0 mi NE 19.6 mph 28.8 mph N/A   Scattered Clouds
10:54 PM 71.1 °F 63.0 °F 75% 29.99 in 10.0 mi NE 17.3 mph - N/A   Partly Cloudy
11:54 PM 71.1 °F 64.0 °F 78% 29.99 in 10.0 mi NE 15.0 mph 25.3 mph N/A   Clear